KBUFKRSW

Guest
Details From KBUF - Buffalo Niagara Intl
To KRSW - Southwest Florida Intl
Flight Number -
Tags decoded
Created
Modified
Stats Distance 996 nm / 1,845 km
Max Altitude 0 ft / 0 m
Waypoints 2
Social Downloads 0
Likes 0
Share VATSIM

Download

Looking for another format? Having issues loading an existing format? Contact us
Advertisement - Login to hide

Notes

Requested: KBUF KRSW

Route

KBUF KRSW

ID Type Via Altitude Latitude Longitude Leg Dist Tot Dist Heading (true) Name
O KBUF APT - 0 ft / 0 m 42.94049˚ -78.73061˚ - 0 nm - Buffalo Niagara Intl
O KRSW APT - 0 ft / 0 m 26.53616˚ -81.75515˚ 996 nm 996 nm 190° / 188° Southwest Florida Intl

Altitude Profile

Advertisement - Login to hide

Weather


0- 5 10 15 20 25 30 35+ Temperature / ° C

Clouds and Precipitation
Forecast for 2018-05-22 12:00 UTC. Updated 5 hours ago

Ground ~20,000 ft ~40,000 ft Winds

KBUF

Details ICAO KBUF (BUF)
Name Buffalo Niagara Intl
Region United States
Timezone America/New_York (UTC-4.0)
Stats Elevation 724 ft / 221 m (AMSL)
Location 42.940487° -78.730606°
Runways 2
Magnetic Variation 10.711° W

METAR

KBUF 221606Z 23010KT 1 1/2SM R23/5500VP6000FT -RA BR BKN004 OVC011 17/16 A2997 RMK AO2 CIG 003V006 P0000 T01670161

Decode

TAF

TAF AMD KBUF 221532Z 2216/2312 24010KT 2SM BR OVC008 FM221800 25008KT 3SM BR BKN008 FM222100 26008KT 2SM BR OVC005 FM230600 28005KT P6SM BKN015

Decode

Departure Runways

ID Width Length Bearing (true) Bearing (mag) Surface Threshold Offset Overrun Length
05 150 ft / 46 m 8,824 ft / 2,690 m 43.83° 54.54° Asphalt 535 ft / 163 m 0 ft / 0 m
14 150 ft / 46 m 7,153 ft / 2,180 m 126.75° 137.46° Asphalt 320 ft / 98 m 0 ft / 0 m
23 150 ft / 46 m 8,824 ft / 2,690 m 223.84° 234.55° Asphalt 726 ft / 221 m 0 ft / 0 m
32 150 ft / 46 m 7,153 ft / 2,180 m 306.77° 317.48° Asphalt 720 ft / 219 m 0 ft / 0 m

KRSW

Details ICAO KRSW (RSW)
Name Southwest Florida Intl
Region United States
Timezone America/New_York (UTC-4.0)
Stats Elevation 30 ft / 9 m (AMSL)
Location 26.536162° -81.755152°
Runways 1
Magnetic Variation 5.884° W

METAR

KRSW 221553Z 12011KT 10SM BKN026 BKN030 BKN038 28/23 A3008 RMK AO2 SLP182 T02780228

Decode

TAF

KRSW 221446Z 2215/2312 12012KT P6SM SCT025 BKN250 TEMPO 2215/2217 BKN025 FM221700 12010KT P6SM VCTS BKN040CB FM230000 11007KT P6SM VCSH SCT025 BKN070 FM230300 10006KT P6SM SCT070 BKN250

Decode

Destination Runways

ID Width Length Bearing (true) Bearing (mag) Surface Threshold Offset Overrun Length
06 150 ft / 46 m 12,004 ft / 3,659 m 53.96° 59.84° Asphalt 0 ft / 0 m 0 ft / 0 m
24 150 ft / 46 m 12,004 ft / 3,659 m 233.97° 239.85° Asphalt 0 ft / 0 m 0 ft / 0 m

Approach Navaids

Runway Type Ident Frequency Range Bearing (true) Bearing (mag) Slope Elevation
06 Localiser IRSW 111.50 MHz 18 nm / 33 km 53.97° 59.85° - 28 ft / 9 m (AMSL)
06 Glidescope IRSW 111.50 MHz 10 nm / 19 km 53.96° 59.85° 3.00° 27 ft / 8 m (AMSL)

Popular Alternatives